Tracking 30289 objects as of 29-Apr-2025
HD Live streaming from Space Station
objects crossing your sky now

QIANFAN-65

Track QIANFAN-65 now!
10-day predictions
QIANFAN-65 is classified as:


NORAD ID: 62795
Int'l Code: 2025-016L
Perigee: 1,067.6 km
Apogee: 1,086.3 km
Inclination: 89.0 °
Period: 106.6 minutes
Semi major axis: 7447 km
RCS: Unknown
Launch date: January 23, 2025
Source: People's Republic of China (PRC)
Launch site: Taiyaun Space Center, China (TSC)
Your satellite tracking list
Your tracking list is empty




NASA's NSSDC Master Catalog

Two Line Element Set (TLE):
1 62795U 25016L   25117.86556390  .00000063  00000-0  79807-4 0  9995
2 62795  88.9824 126.6263 0012516 288.7480  71.2312 13.50665504 16343
Source of the keplerian elements: AFSPC